Time,TemperatureF,DewpointF,PressureIn,WindDirection,WindDirectionDegrees,WindSpeedMPH,WindSpeedGustMPH,Humidity,HourlyPrecipIn,Conditions,Clouds,dailyrainin,SolarRadiationWatts/m^2,SoftwareType,DateUTC
2013-10-11 00:09:00,56.2,54.0,30.16,NW,304,2.0,4.0,92,0.00,,,0.00,0,weatherlink.com 1.10,2013-10-11 04:09:00,
2013-10-11 00:24:00,56.1,54.0,30.16,NW,311,1.0,3.0,93,0.00,,,0.00,0,weatherlink.com 1.10,2013-10-11 04:24:00,
2013-10-11 00:39:00,56.1,54.0,30.16,NW,325,0.0,6.0,93,0.00,,,0.00,0,weatherlink.com 1.10,2013-10-11 04:39:00,
2013-10-11 00:54:00,56.0,54.0,30.16,NNW,329,0.0,5.0,93,0.00,,,0.00,0,weatherlink.com 1.10,2013-10-11 04:54:00,
2013-10-11 01:09:00,56.0,54.0,30.15,WNW,298,0.0,4.0,93,0.00,,,0.00,0,weatherlink.com 1.10,2013-10-11 05:09:00,
2013-10-11 01:24:00,56.0,54.0,30.15,North,355,0.0,3.0,93,0.00,,,0.00,0,weatherlink.com 1.10,2013-10-11 05:24:00,
2013-10-11 01:39:00,56.0,54.0,30.14,SW,216,2.0,4.0,93,0.00,,,0.00,0,weatherlink.com 1.10,2013-10-11 05:39:00,
2013-10-11 01:54:00,56.0,54.0,30.14,NW,321,1.0,3.0,94,0.00,,,0.00,0,weatherlink.com 1.10,2013-10-11 05:54:00,
2013-10-11 02:10:00,56.0,54.0,30.14,North,350,0.0,2.0,94,0.00,,,0.00,0,weatherlink.com 1.10,2013-10-11 06:10:00,
2013-10-11 02:24:00,56.0,54.0,30.14,NNE,22,3.0,3.0,94,0.00,,,0.00,0,weatherlink.com 1.10,2013-10-11 06:24:00,
2013-10-11 02:39:00,56.0,54.0,30.14,WNW,292,0.0,5.0,94,0.00,,,0.00,0,weatherlink.com 1.10,2013-10-11 06:39:00,
2013-10-11 02:54:00,56.0,54.0,30.14,West,279,0.0,5.0,94,0.00,,,0.00,0,weatherlink.com 1.10,2013-10-11 06:54:00,
2013-10-11 03:09:00,56.1,54.0,30.13,NW,312,4.0,4.0,94,0.00,,,0.00,0,weatherlink.com 1.10,2013-10-11 07:09:00,
2013-10-11 03:24:00,56.1,54.0,30.12,WSW,242,0.0,4.0,94,0.00,,,0.00,0,weatherlink.com 1.10,2013-10-11 07:24:00,
2013-10-11 03:39:00,56.1,54.0,30.12,East,89,2.0,6.0,94,0.00,,,0.00,0,weatherlink.com 1.10,2013-10-11 07:39:00,
2013-10-11 03:54:00,56.1,54.0,30.12,West,281,1.0,5.0,94,0.00,,,0.00,0,weatherlink.com 1.10,2013-10-11 07:54:00,
2013-10-11 04:09:00,56.2,55.0,30.12,WNW,302,0.0,4.0,94,0.00,,,0.00,0,weatherlink.com 1.10,2013-10-11 08:09:00,
2013-10-11 04:24:00,56.2,55.0,30.12,South,189,1.0,4.0,94,0.00,,,0.00,0,weatherlink.com 1.10,2013-10-11 08:24:00,
2013-10-11 04:39:00,56.0,54.0,30.12,West,267,0.0,2.0,94,0.00,,,0.00,0,weatherlink.com 1.10,2013-10-11 08:39:00,
2013-10-11 04:54:00,55.6,54.0,30.12,North,355,0.0,3.0,94,0.00,,,0.00,0,weatherlink.com 1.10,2013-10-11 08:54:00,
2013-10-11 05:09:00,55.3,54.0,30.13,West,267,0.0,4.0,94,0.00,,,0.00,0,weatherlink.com 1.10,2013-10-11 09:09:00,
2013-10-11 05:24:00,55.1,54.0,30.13,WSW,246,0.0,2.0,95,0.00,,,0.00,0,weatherlink.com 1.10,2013-10-11 09:24:00,
2013-10-11 05:39:00,55.0,54.0,30.13,West,275,0.0,2.0,95,0.01,,,0.01,0,weatherlink.com 1.10,2013-10-11 09:39:00,
2013-10-11 05:54:00,55.2,54.0,30.13,NW,319,0.0,2.0,95,0.01,,,0.01,0,weatherlink.com 1.10,2013-10-11 09:54:00,
2013-10-11 06:09:00,55.3,54.0,30.13,WSW,247,0.0,2.0,95,0.01,,,0.01,0,weatherlink.com 1.10,2013-10-11 10:09:00,
2013-10-11 06:24:00,55.1,54.0,30.12,North,5,0.0,4.0,94,0.01,,,0.01,0,weatherlink.com 1.10,2013-10-11 10:24:00,
2013-10-11 06:39:00,54.8,53.0,30.13,SSW,199,0.0,2.0,94,0.00,,,0.01,0,weatherlink.com 1.10,2013-10-11 10:39:00,
2013-10-11 06:54:00,54.8,53.0,30.12,East,83,0.0,3.0,95,0.00,,,0.01,0,weatherlink.com 1.10,2013-10-11 10:54:00,
2013-10-11 07:10:00,55.0,54.0,30.13,SSW,207,1.0,4.0,95,0.00,,,0.01,0,weatherlink.com 1.10,2013-10-11 11:10:00,
2013-10-11 07:25:00,55.1,54.0,30.13,SSW,194,2.0,5.0,95,0.00,,,0.01,11,weatherlink.com 1.10,2013-10-11 11:25:00,
2013-10-11 07:40:00,55.0,53.0,30.12,NW,322,0.0,3.0,94,0.00,,,0.01,14,weatherlink.com 1.10,2013-10-11 11:40:00,
2013-10-11 07:55:00,54.9,53.0,30.13,NW,322,2.0,4.0,94,0.00,,,0.01,16,weatherlink.com 1.10,2013-10-11 11:55:00,
2013-10-11 08:10:00,54.8,53.0,30.13,NNE,29,0.0,3.0,94,0.00,,,0.01,23,weatherlink.com 1.10,2013-10-11 12:10:00,
2013-10-11 08:25:00,54.8,53.0,30.14,South,191,1.0,2.0,94,0.00,,,0.01,26,weatherlink.com 1.10,2013-10-11 12:25:00,
2013-10-11 08:40:00,55.2,54.0,30.14,West,265,0.0,2.0,94,0.00,,,0.01,42,weatherlink.com 1.10,2013-10-11 12:40:00,
2013-10-11 08:55:00,56.6,55.0,30.14,West,274,2.0,3.0,93,0.00,,,0.01,134,weatherlink.com 1.10,2013-10-11 12:55:00,
2013-10-11 09:10:00,59.3,56.0,30.14,WNW,303,1.0,3.0,90,0.00,,,0.01,144,weatherlink.com 1.10,2013-10-11 13:10:00,
2013-10-11 09:25:00,61.7,58.0,30.14,NNE,13,0.0,5.0,86,0.00,,,0.01,221,weatherlink.com 1.10,2013-10-11 13:25:00,
2013-10-11 09:40:00,63.4,58.0,30.14,West,277,0.0,5.0,82,0.00,,,0.01,338,weatherlink.com 1.10,2013-10-11 13:40:00,
2013-10-11 09:55:00,65.4,59.0,30.14,East,96,0.0,4.0,79,0.00,,,0.01,378,weatherlink.com 1.10,2013-10-11 13:55:00,
2013-10-11 10:10:00,67.2,59.0,30.13,ENE,67,1.0,5.0,75,0.00,,,0.01,496,weatherlink.com 1.10,2013-10-11 14:10:00,
2013-10-11 10:25:00,69.2,60.0,30.13,NNW,335,0.0,7.0,72,0.00,,,0.01,339,weatherlink.com 1.10,2013-10-11 14:25:00,
2013-10-11 10:40:00,69.8,61.0,30.13,North,355,1.0,5.0,73,0.00,,,0.01,334,weatherlink.com 1.10,2013-10-11 14:40:00,
2013-10-11 10:55:00,68.4,61.0,30.14,North,360,0.0,7.0,76,0.00,,,0.01,424,weatherlink.com 1.10,2013-10-11 14:55:00,
2013-10-11 11:10:00,69.2,61.0,30.14,SSE,163,2.0,6.0,74,0.00,,,0.01,279,weatherlink.com 1.10,2013-10-11 15:10:00,
2013-10-11 11:40:00,71.8,62.0,30.13,NE,51,0.0,5.0,71,0.00,,,0.01,448,weatherlink.com 1.10,2013-10-11 15:40:00,
2013-10-11 11:55:00,72.0,61.0,30.13,NNW,341,2.0,3.0,69,0.00,,,0.01,195,weatherlink.com 1.10,2013-10-11 15:55:00,
2013-10-11 12:10:00,70.6,61.0,30.14,NNW,345,0.0,5.0,71,0.00,,,0.01,135,weatherlink.com 1.10,2013-10-11 16:10:00,
2013-10-11 12:25:00,70.0,61.0,30.13,North,360,0.0,4.0,74,0.00,,,0.01,239,weatherlink.com 1.10,2013-10-11 16:25:00,
2013-10-11 12:40:00,69.8,60.0,30.14,East,85,1.0,5.0,72,0.00,,,0.01,155,weatherlink.com 1.10,2013-10-11 16:40:00,
2013-10-11 12:55:00,69.3,61.0,30.13,East,90,0.0,5.0,74,0.00,,,0.01,179,weatherlink.com 1.10,2013-10-11 16:55:00,
2013-10-11 13:10:00,69.7,61.0,30.12,SW,235,1.0,5.0,75,0.00,,,0.01,169,weatherlink.com 1.10,2013-10-11 17:10:00,
2013-10-11 13:25:00,69.8,61.0,30.12,WNW,303,1.0,4.0,74,0.00,,,0.01,113,weatherlink.com 1.10,2013-10-11 17:25:00,
2013-10-11 13:40:00,69.1,61.0,30.11,WNW,303,0.0,7.0,75,0.00,,,0.01,221,weatherlink.com 1.10,2013-10-11 17:40:00,
2013-10-11 13:55:00,69.9,61.0,30.11,WNW,293,2.0,6.0,73,0.00,,,0.01,209,weatherlink.com 1.10,2013-10-11 17:55:00,
2013-10-11 14:10:00,70.2,61.0,30.11,South,171,1.0,6.0,72,0.00,,,0.01,183,weatherlink.com 1.10,2013-10-11 18:10:00,
2013-10-11 14:25:00,70.9,62.0,30.11,NNE,12,1.0,4.0,74,0.00,,,0.01,443,weatherlink.com 1.10,2013-10-11 18:25:00,
2013-10-11 14:40:00,72.0,61.0,30.10,SE,133,3.0,10.0,69,0.00,,,0.01,230,weatherlink.com 1.10,2013-10-11 18:40:00,
2013-10-11 14:55:00,72.7,62.0,30.10,SE,124,2.0,5.0,69,0.00,,,0.01,318,weatherlink.com 1.10,2013-10-11 18:55:00,
2013-10-11 15:10:00,71.3,61.0,30.10,SSW,194,1.0,6.0,70,0.00,,,0.01,104,weatherlink.com 1.10,2013-10-11 19:10:00,
2013-10-11 15:25:00,69.9,60.0,30.11,North,5,0.0,5.0,72,0.00,,,0.01,67,weatherlink.com 1.10,2013-10-11 19:25:00,
2013-10-11 15:40:00,69.1,61.0,30.11,WSW,253,1.0,4.0,75,0.00,,,0.01,47,weatherlink.com 1.10,2013-10-11 19:40:00,
2013-10-11 15:55:00,68.3,60.0,30.11,NW,315,2.0,5.0,76,0.00,,,0.01,65,weatherlink.com 1.10,2013-10-11 19:55:00,
2013-10-11 16:10:00,68.2,61.0,30.11,NNE,29,0.0,2.0,77,0.00,,,0.01,56,weatherlink.com 1.10,2013-10-11 20:10:00,
2013-10-11 16:26:00,68.0,61.0,30.11,NNE,32,1.0,4.0,77,0.00,,,0.01,46,weatherlink.com 1.10,2013-10-11 20:26:00,
2013-10-11 16:40:00,67.5,60.0,30.11,SW,215,0.0,3.0,77,0.00,,,0.01,35,weatherlink.com 1.10,2013-10-11 20:40:00,
2013-10-11 16:56:00,67.1,60.0,30.11,SE,146,0.0,2.0,77,0.00,,,0.01,42,weatherlink.com 1.10,2013-10-11 20:56:00,
2013-10-11 17:11:00,66.6,60.0,30.11,NNW,344,2.0,2.0,79,0.00,,,0.01,28,weatherlink.com 1.10,2013-10-11 21:11:00,
2013-10-11 17:26:00,65.9,59.0,30.11,North,355,0.0,4.0,79,0.00,,,0.01,18,weatherlink.com 1.10,2013-10-11 21:26:00,
2013-10-11 17:41:00,65.4,59.0,30.11,NNW,331,0.0,4.0,80,0.00,,,0.01,14,weatherlink.com 1.10,2013-10-11 21:41:00,
2013-10-11 17:56:00,64.7,59.0,30.11,WSW,239,0.0,1.0,81,0.00,,,0.01,9,weatherlink.com 1.10,2013-10-11 21:56:00,
2013-10-11 18:11:00,63.8,59.0,30.12,South,191,0.0,1.0,83,0.00,,,0.01,0,weatherlink.com 1.10,2013-10-11 22:11:00,
2013-10-11 18:26:00,62.9,58.0,30.12,South,191,0.0,1.0,84,0.00,,,0.01,0,weatherlink.com 1.10,2013-10-11 22:26:00,
2013-10-11 18:41:00,62.2,58.0,30.13,SW,217,0.0,0.0,85,0.00,,,0.01,0,weatherlink.com 1.10,2013-10-11 22:41:00,
2013-10-11 18:56:00,61.6,57.0,30.13,SW,217,0.0,1.0,86,0.00,,,0.01,0,weatherlink.com 1.10,2013-10-11 22:56:00,
2013-10-11 19:11:00,61.1,57.0,30.13,SW,217,0.0,1.0,87,0.00,,,0.01,0,weatherlink.com 1.10,2013-10-11 23:11:00,
2013-10-11 19:26:00,61.1,58.0,30.13,SW,221,0.0,1.0,88,0.00,,,0.01,0,weatherlink.com 1.10,2013-10-11 23:26:00,
2013-10-11 19:41:00,61.2,57.0,30.14,SSW,204,0.0,2.0,87,0.00,,,0.01,0,weatherlink.com 1.10,2013-10-11 23:41:00,
2013-10-11 19:56:00,61.0,57.0,30.14,NE,49,0.0,2.0,86,0.00,,,0.01,0,weatherlink.com 1.10,2013-10-11 23:56:00,
2013-10-11 20:11:00,60.4,56.0,30.15,NE,48,0.0,1.0,84,0.00,,,0.01,0,weatherlink.com 1.10,2013-10-12 00:11:00,
2013-10-11 20:26:00,59.5,53.0,30.16,NE,48,1.0,1.0,79,0.00,,,0.01,0,weatherlink.com 1.10,2013-10-12 00:26:00,
2013-10-11 20:41:00,58.6,51.0,30.16,SW,234,0.0,2.0,75,0.00,,,0.01,0,weatherlink.com 1.10,2013-10-12 00:41:00,
2013-10-11 20:56:00,57.8,50.0,30.16,SW,234,0.0,1.0,76,0.00,,,0.01,0,weatherlink.com 1.10,2013-10-12 00:56:00,
2013-10-11 21:11:00,57.1,50.0,30.16,SW,234,0.0,0.0,77,0.00,,,0.01,0,weatherlink.com 1.10,2013-10-12 01:11:00,
2013-10-11 21:26:00,56.4,49.0,30.16,SW,231,0.0,2.0,77,0.00,,,0.01,0,weatherlink.com 1.10,2013-10-12 01:26:00,
2013-10-11 21:41:00,55.8,49.0,30.16,West,269,0.0,2.0,77,0.00,,,0.00,0,weatherlink.com 1.10,2013-10-12 01:41:00,
2013-10-11 21:56:00,55.3,49.0,30.16,NNW,330,0.0,2.0,78,0.00,,,0.00,0,weatherlink.com 1.10,2013-10-12 01:56:00,
2013-10-11 22:11:00,54.8,48.0,30.16,NW,322,0.0,2.0,78,0.00,,,0.00,0,weatherlink.com 1.10,2013-10-12 02:11:00,
2013-10-11 22:26:00,54.3,48.0,30.16,NNW,342,0.0,1.0,78,0.00,,,0.00,0,weatherlink.com 1.10,2013-10-12 02:26:00,
2013-10-11 22:41:00,53.8,47.0,30.16,NNW,342,0.0,0.0,79,0.00,,,0.00,0,weatherlink.com 1.10,2013-10-12 02:41:00,
2013-10-11 22:56:00,53.2,47.0,30.16,West,275,0.0,0.0,79,0.00,,,0.00,0,weatherlink.com 1.10,2013-10-12 02:56:00,
2013-10-11 23:11:00,53.0,46.0,30.16,NNE,28,0.0,0.0,78,0.00,,,0.00,0,weatherlink.com 1.10,2013-10-12 03:11:00,
2013-10-11 23:26:00,52.6,46.0,30.16,NNE,28,0.0,0.0,78,0.00,,,0.00,0,weatherlink.com 1.10,2013-10-12 03:26:00,
2013-10-11 23:41:00,52.6,45.0,30.16,ENE,69,0.0,3.0,76,0.00,,,0.00,0,weatherlink.com 1.10,2013-10-12 03:41:00,
2013-10-11 23:56:00,52.7,46.0,30.15,ESE,115,0.0,1.0,77,0.00,,,0.00,0,weatherlink.com 1.10,2013-10-12 03:56:00,